K5NCO Weather Reports


Display with metric or nautical units.
time (UTC)temp
F
wind
direction
speed
MPH
gust
MPH
rain 1hr
in
rain 24hr
in
rain mn
in
humidity
%
barometer
mb
20260508022037 62 30 3.0 3.0 0.00 0.00 0.00 81 1015.5
20260508021533 62 353 2.0 4.0 0.00 0.00 0.00 81 1015.3
20260508021029 62 26 4.0 6.0 0.00 0.00 0.00 81 1015.4
20260508020527 62 29 2.0 3.0 0.00 0.00 0.00 80 1015.5
20260508020024 62 16 3.0 4.0 0.00 0.00 0.00 80 1015.7
20260508015521 62 29 2.0 3.0 0.00 0.00 0.00 80 1015.7
20260508015018 62 4 2.0 3.0 0.00 0.00 0.00 79 1016.0
20260508014515 62 1 3.0 3.0 0.00 0.00 0.00 79 1016.0
20260508014011 62 11 3.0 4.0 0.00 0.00 0.00 78 1015.8
20260508013507 62 30 1.0 1.0 0.00 0.00 0.00 78 1015.7
20260508013005 62 45 4.0 6.0 0.00 0.00 0.00 78 1015.9
20260508012502 62 40 2.0 3.0 0.00 0.00 0.00 77 1015.4
20260508011959 63 41 4.0 7.0 0.00 0.00 0.00 77 1015.5
20260508011457 63 57 2.0 3.0 0.00 0.00 0.00 77 1015.9
20260508010954 63 42 2.0 3.0 0.00 0.00 0.00 78 1016.1
20260508010451 63 12 2.0 2.0 0.00 0.00 0.00 76 1016.0
20260508005948 63 21 3.0 3.0 0.00 0.00 0.00 75 1016.4
20260508005445 63 328 2.0 2.0 0.00 0.00 0.00 75 1016.5
20260508004941 64 37 2.0 2.0 0.00 0.00 0.00 75 1016.3
20260508004437 64 27 0.0 1.0 0.00 0.00 0.00 74 1016.2
20260508003934 64 54 5.0 7.0 0.00 0.00 0.00 73 1016.2
20260508003431 64 21 4.0 6.0 0.00 0.00 0.00 73 1016.1
20260508002928 64 50 2.0 2.0 0.00 0.00 0.00 74 1016.2
20260508002425 64 25 2.0 2.0 0.00 0.00 0.00 73 1016.5
20260508001921 64 26 3.0 3.0 0.00 0.00 0.00 72 1016.9
20260508001417 64 25 5.0 7.0 0.00 0.00 0.00 72 1017.0
20260508000913 64 311 3.0 3.0 0.00 0.00 0.00 72 1017.2
20260508000405 65 38 4.0 6.0 0.00 0.00 0.00 71 1017.3
20260507235901 65 23 4.0 4.0 0.00 0.00 0.00 72 1017.3
20260507235358 65 5 3.0 3.0 0.00 0.00 0.00 72 1017.4
20260507234855 65 339 5.0 7.0 0.00 0.00 0.00 72 1017.3
20260507234352 65 348 2.0 3.0 0.00 0.00 0.00 71 1017.3
20260507233848 65 340 2.0 4.0 0.00 0.00 0.00 70 1017.2
20260507233346 65 347 0.0 2.0 0.00 0.00 0.00 71 1017.1
20260507232844 65 349 0.0 1.0 0.00 0.00 0.00 72 1017.2
20260507232340 65 6 3.0 3.0 0.00 0.00 0.00 71 1017.0
20260507231838 65 66 2.0 2.0 0.00 0.00 0.00 71 1016.6
20260507231334 65 41 3.0 4.0 0.00 0.00 0.00 71 1016.7
20260507230830 66 39 2.0 2.0 0.00 0.00 0.00 71 1017.2
20260507230328 66 24 1.0 1.0 0.00 0.00 0.00 70 1017.1
20260507225827 65 14 5.0 7.0 0.00 0.00 0.00 69 1017.3
20260507225324 65 26 1.0 3.0 0.00 0.00 0.00 70 1017.3
20260507224820 66 357 3.0 4.0 0.00 0.00 0.00 70 1016.9
20260507224317 65 36 2.0 2.0 0.00 0.00 0.00 72 1017.0
20260507223813 65 343 1.0 2.0 0.00 0.00 0.00 70 1017.3
20260507223309 65 10 3.0 4.0 0.00 0.00 0.00 70 1017.3
20260507222807 65 351 4.0 7.0 0.00 0.00 0.00 70 1017.4
20260507222306 65 347 2.0 3.0 0.00 0.00 0.00 70 1017.5
20260507221800 65 332 6.0 8.0 0.00 0.00 0.00 69 1017.7
20260507221256 66 304 2.0 3.0 0.00 0.00 0.00 70 1017.9
20260507220752 66 309 6.0 8.0 0.00 0.00 0.00 68 1017.7
20260507220251 65 2 3.0 4.0 0.00 0.00 0.00 69 1017.6
20260507215747 65 345 8.0 9.0 0.00 0.00 0.00 69 1017.5
20260507215244 65 340 5.0 8.0 0.00 0.00 0.00 69 1017.8
20260507214741 66 327 6.0 8.0 0.00 0.00 0.00 69 1018.2
20260507214239 66 340 2.0 3.0 0.00 0.00 0.00 71 1017.9
20260507213733 66 318 5.0 8.0 0.00 0.00 0.00 70 1017.8
20260507213231 66 3 8.0 10.0 0.00 0.00 0.00 70 1017.9
20260507212727 65 1 4.0 7.0 0.00 0.00 0.00 72 1018.1
20260507212224 65 36 3.0 4.0 0.00 0.00 0.00 72 1017.7
20260507211721 65 26 4.0 6.0 0.00 0.00 0.00 73 1017.3
20260507211216 64 35 4.0 4.0 0.00 0.00 0.00 74 1017.5
20260507210714 64 348 3.0 4.0 0.00 0.00 0.00 73 1017.7
20260507210211 64 359 4.0 7.0 0.00 0.00 0.00 73 1017.7
20260507205707 64 352 3.0 4.0 0.00 0.00 0.00 73 1017.9
20260507205204 64 357 6.0 8.0 0.00 0.00 0.00 73 1018.3
20260507204700 65 49 1.0 2.0 0.00 0.00 0.00 73 1018.5
20260507204158 64 337 0.0 1.0 0.00 0.00 0.00 74 1018.6
20260507203656 64 345 2.0 4.0 0.00 0.00 0.00 74 1018.2
20260507203153 64 340 3.0 6.0 0.00 0.00 0.00 73 1018.7
20260507202648 64 23 4.0 7.0 0.00 0.00 0.00 73 1018.7
20260507202144 65 7 3.0 4.0 0.00 0.00 0.00 73 1018.8
20260507201640 64 342 2.0 3.0 0.00 0.00 0.00 75 1018.9
20260507201137 64 11 5.0 7.0 0.00 0.00 0.00 73 1018.7
20260507200633 64 37 4.0 4.0 0.00 0.00 0.00 73 1018.9
20260507200129 63 344 2.0 4.0 0.00 0.00 0.00 75 1018.4
20260507195626 63 336 3.0 6.0 0.00 0.00 0.00 75 1018.5
20260507195123 63 9 4.0 9.0 0.00 0.00 0.00 76 1018.7
20260507194620 63 334 3.0 3.0 0.00 0.00 0.00 75 1019.3
20260507194115 63 15 3.0 3.0 0.00 0.00 0.00 74 1019.2
20260507193613 63 37 5.0 8.0 0.00 0.00 0.00 74 1019.1
20260507193110 63 83 3.0 6.0 0.00 0.00 0.00 75 1019.1
20260507192606 63 53 4.0 6.0 0.00 0.00 0.00 75 1019.0
20260507192103 63 17 3.0 4.0 0.00 0.00 0.00 74 1019.3
20260507191558 62 340 4.0 7.0 0.00 0.00 0.00 75 1019.3
20260507191056 62 10 6.0 7.0 0.00 0.00 0.00 76 1019.2
20260507190553 62 45 1.0 3.0 0.00 0.00 0.00 77 1019.5
20260507190051 62 30 2.0 2.0 0.00 0.00 0.00 76 1019.3
20260507185549 62 36 4.0 6.0 0.00 0.00 0.00 76 1019.0
20260507185046 62 9 2.0 3.0 0.00 0.00 0.00 77 1019.1
20260507184544 62 341 11.0 16.0 0.00 0.00 0.00 75 1019.3
20260507184042 62 65 4.0 6.0 0.00 0.00 0.00 77 1019.2
20260507183537 62 6 4.0 9.0 0.00 0.00 0.00 76 1019.6
20260507183034 62 34 6.0 8.0 0.00 0.00 0.00 76 1019.2
20260507182531 62 49 9.0 13.0 0.00 0.00 0.00 76 1019.0
20260507182027 62 337 5.0 7.0 0.00 0.00 0.00 77 1019.3
20260507181524 62 23 6.0 7.0 0.00 0.00 0.00 76 1019.6
20260507181020 62 358 4.0 4.0 0.00 0.00 0.00 77 1019.6
20260507180516 62 27 5.0 8.0 0.00 0.00 0.00 77 1019.3
20260507180014 62 346 7.0 9.0 0.00 0.00 0.00 77 1019.7
20260507175510 62 13 5.0 8.0 0.00 0.00 0.00 78 1019.6
20260507175007 62 31 6.0 9.0 0.00 0.00 0.00 78 1019.3
20260507174504 62 31 2.0 6.0 0.00 0.00 0.00 79 1019.4
20260507174002 62 20 6.0 8.0 0.00 0.00 0.00 78 1019.6
20260507173459 62 25 2.0 3.0 0.00 0.00 0.00 80 1019.8
20260507172956 61 45 6.0 8.0 0.00 0.00 0.00 81 1019.6
20260507172452 61 33 6.0 10.0 0.00 0.00 0.00 80 1019.7
20260507171949 61 331 7.0 10.0 0.00 0.00 0.00 81 1019.5
20260507171444 60 53 1.0 3.0 0.00 0.00 0.00 82 1019.4
20260507170942 60 40 3.0 6.0 0.00 0.00 0.00 82 1019.2
20260507170438 60 21 5.0 10.0 0.00 0.00 0.00 82 1019.4
20260507165935 60 50 0.0 1.0 0.00 0.00 0.00 83 1019.9
20260507165431 59 2 10.0 13.0 0.00 0.00 0.00 83 1019.6
20260507164926 60 322 2.0 2.0 0.00 0.00 0.00 83 1019.6
20260507164424 59 332 2.0 3.0 0.00 0.00 0.00 84 1019.9
20260507163921 59 32 9.0 13.0 0.00 0.00 0.00 83 1019.8
20260507163418 59 0 7.0 13.0 0.00 0.00 0.00 83 1020.4
20260507162915 59 322 3.0 4.0 0.00 0.00 0.00 84 1020.9
20260507162410 59 28 5.0 7.0 0.00 0.00 0.00 83 1021.3
20260507161908 59 343 3.0 3.0 0.00 0.00 0.00 84 1021.7
20260507161404 59 13 7.0 8.0 0.00 0.00 0.00 83 1021.3
20260507160901 58 38 1.0 1.0 0.00 0.00 0.00 84 1020.5
20260507160356 58 334 2.0 3.0 0.00 0.00 0.00 84 1021.0
20260507155853 58 3 4.0 7.0 0.00 0.00 0.00 84 1020.9
20260507155349 58 352 4.0 6.0 0.00 0.00 0.00 83 1020.8
20260507154845 58 325 8.0 10.0 0.00 0.00 0.00 84 1020.8
20260507154343 58 34 0.0 0.0 0.00 0.00 0.00 84 1020.6
20260507153921 58 4 8.0 10.0 0.00 0.00 0.00 84 1020.8
20260507153840 58 4 8.0 10.0 0.00 0.00 0.00 84 1020.8
20260507153336 58 354 6.0 10.0 0.00 0.00 0.00 84 1020.5
20260507152850 58 333 4.0 10.0 0.00 0.00 0.00 85 1020.5
20260507152833 58 21 3.0 6.0 0.00 0.00 0.00 85 1020.5
20260507152329 58 333 4.0 10.0 0.00 0.00 0.00 85 1020.5
20260507152006 58 289 8.0 10.0 0.00 0.00 0.00 85 1021.0
20260507151825 58 289 8.0 10.0 0.00 0.00 0.00 85 1021.0
20260507151322 58 30 6.0 10.0 0.00 0.00 0.00 86 1020.5
20260507150819 58 17 2.0 3.0 0.00 0.00 0.00 86 1020.7
20260507150315 58 345 6.0 7.0 0.00 0.00 0.00 86 1020.7
20260507145811 58 28 5.0 6.0 0.00 0.00 0.00 86 1020.6
20260507145308 58 21 2.0 4.0 0.00 0.00 0.00 87 1020.9
20260507144805 58 4 6.0 8.0 0.00 0.00 0.00 87 1020.8
20260507144302 59 328 5.0 10.0 0.00 0.00 0.00 87 1020.5
20260507143759 59 309 6.0 8.0 0.00 0.00 0.00 87 1020.5
20260507143256 58 1 5.0 9.0 0.00 0.00 0.00 87 1020.4
20260507142752 59 359 12.0 18.0 0.00 0.00 0.00 87 1020.0
20260507142249 58 359 7.0 10.0 0.00 0.00 0.00 87 1019.9
20260507141745 58 0 4.0 7.0 0.00 0.00 0.00 89 1020.3
20260507141242 58 24 7.0 11.0 0.00 0.00 0.00 90 1020.2
20260507140738 58 353 10.0 13.0 0.00 0.00 0.00 90 1020.1
20260507140236 58 269 7.0 13.0 0.00 0.00 0.00 90 1020.1
20260507135733 58 323 6.0 9.0 0.00 0.00 0.00 90 1020.2
20260507135230 58 321 9.0 14.0 0.00 0.00 0.00 90 1020.0
20260507134726 58 342 5.0 7.0 0.00 0.00 0.00 90 1019.6
20260507134223 58 351 6.0 9.0 0.00 0.00 0.00 91 1019.6
20260507133719 58 1 4.0 9.0 0.00 0.00 0.00 91 1019.7
20260507133216 58 29 5.0 6.0 0.00 0.00 0.00 92 1019.7
20260507132713 58 2 4.0 7.0 0.00 0.00 0.00 92 1019.8
20260507132210 58 274 7.0 9.0 0.00 0.00 0.00 92 1019.6
20260507131706 58 353 5.0 8.0 0.00 0.00 0.00 92 1019.6
20260507131204 58 39 12.0 14.0 0.00 0.00 0.00 92 1019.7
20260507130700 58 332 4.0 6.0 0.00 0.00 0.00 93 1019.8
20260507130158 58 329 6.0 8.0 0.00 0.00 0.00 93 1020.0
20260507125657 58 322 4.0 4.0 0.00 0.00 0.00 93 1019.9
20260507125154 58 342 5.0 6.0 0.00 0.00 0.00 93 1019.4
20260507124650 58 4 4.0 7.0 0.00 0.00 0.00 94 1019.8
20260507124148 58 28 4.0 9.0 0.00 0.00 0.00 94 1019.7
20260507123646 58 356 10.0 11.0 0.00 0.00 0.00 94 1019.7
20260507123143 58 338 4.0 6.0 0.00 0.00 0.00 94 1019.7
20260507122638 58 333 8.0 9.0 0.00 0.00 0.00 94 1019.7
20260507122134 58 323 7.0 10.0 0.00 0.00 0.00 93 1019.7
20260507121630 58 16 12.0 14.0 0.00 0.00 0.00 93 1019.4
20260507121125 58 327 6.0 10.0 0.00 0.00 0.00 93 1019.0
20260507120621 58 352 9.0 11.0 0.00 0.00 0.00 93 1018.9
20260507120113 58 3 5.0 8.0 0.00 0.00 0.00 93 1018.8
20260507115610 58 0 4.0 6.0 0.00 0.00 0.00 93 1018.7
20260507115105 58 353 7.0 11.0 0.00 0.00 0.00 93 1018.7
20260507114601 58 355 5.0 6.0 0.00 0.00 0.00 93 1018.7
20260507114059 58 15 3.0 3.0 0.00 0.00 0.00 93 1018.8
20260507113555 58 349 9.0 13.0 0.00 0.00 0.00 93 1018.5
20260507113053 58 338 6.0 9.0 0.00 0.00 0.00 93 1018.8
20260507112551 58 322 5.0 8.0 0.00 0.00 0.00 93 1018.7
20260507112047 58 34 6.0 9.0 0.00 0.00 0.00 93 1018.8
20260507111544 58 349 5.0 7.0 0.00 0.00 0.00 93 1018.6
20260507111041 58 345 6.0 9.0 0.00 0.00 0.00 93 1018.8
20260507110537 58 317 4.0 4.0 0.00 0.00 0.00 93 1018.7
20260507110034 58 355 7.0 11.0 0.00 0.00 0.00 93 1018.6
20260507105531 57 3 8.0 9.0 0.00 0.00 0.00 93 1018.7
20260507105027 57 357 9.0 11.0 0.00 0.00 0.00 93 1018.8
20260507104525 58 358 6.0 9.0 0.00 0.00 0.00 93 1019.1
20260507104021 58 348 10.0 13.0 0.00 0.00 0.00 93 1018.9
20260507103517 58 326 2.0 4.0 0.00 0.00 0.00 93 1018.5
20260507103014 58 341 8.0 9.0 0.00 0.00 0.00 92 1017.9
20260507102510 58 41 4.0 6.0 0.00 0.00 0.00 92 1018.2
20260507102007 58 311 8.0 10.0 0.00 0.00 0.00 92 1018.3
20260507101502 58 352 3.0 3.0 0.00 0.00 0.00 92 1018.3
20260507100958 58 16 6.0 11.0 0.00 0.00 0.00 92 1018.3
20260507100456 58 5 8.0 11.0 0.00 0.00 0.00 92 1017.9
20260507095954 58 12 4.0 6.0 0.00 0.00 0.00 92 1018.4
20260507095452 58 15 3.0 4.0 0.00 0.00 0.00 92 1018.5
20260507094948 58 359 2.0 2.0 0.00 0.00 0.00 92 1018.7
20260507094444 58 342 5.0 10.0 0.00 0.00 0.00 92 1018.6
20260507093941 58 13 5.0 9.0 0.00 0.00 0.00 92 1018.3
20260507093439 58 335 2.0 6.0 0.00 0.00 0.00 92 1018.4
20260507092937 58 9 4.0 6.0 0.00 0.00 0.00 92 1018.2
20260507092433 58 348 6.0 9.0 0.00 0.00 0.00 91 1018.2
20260507091930 58 347 5.0 6.0 0.00 0.00 0.00 91 1018.3
20260507091426 58 339 2.0 2.0 0.00 0.00 0.00 91 1018.2
20260507090916 58 4 2.0 3.0 0.00 0.00 0.00 91 1017.9
20260507090413 58 339 3.0 3.0 0.00 0.00 0.00 92 1017.8
20260507085910 58 10 4.0 4.0 0.00 0.00 0.00 91 1017.5
20260507085407 58 8 4.0 4.0 0.00 0.00 0.00 91 1017.4
20260507084904 58 347 4.0 7.0 0.00 0.00 0.00 91 1017.4
20260507084401 58 340 3.0 4.0 0.00 0.00 0.00 91 1017.3
20260507083858 58 16 3.0 4.0 0.00 0.00 0.00 91 1017.8
20260507083354 58 342 4.0 4.0 0.00 0.00 0.00 91 1017.4
20260507082850 59 340 3.0 3.0 0.00 0.00 0.00 91 1017.4
20260507082346 58 350 2.0 3.0 0.00 0.00 0.00 91 1017.2
20260507081843 58 27 3.0 4.0 0.00 0.00 0.00 91 1017.2
20260507081339 59 351 3.0 4.0 0.00 0.00 0.00 91 1017.4
20260507080837 59 50 5.0 7.0 0.00 0.00 0.00 91 1017.4
20260507080332 59 12 7.0 8.0 0.00 0.00 0.00 91 1017.1
20260507075828 59 340 3.0 6.0 0.00 0.00 0.00 91 1016.7
20260507075324 59 21 3.0 4.0 0.00 0.00 0.00 91 1016.6
20260507074821 59 4 4.0 6.0 0.00 0.00 0.00 91 1016.8
20260507074318 59 50 4.0 7.0 0.00 0.00 0.00 90 1017.1
20260507073815 59 346 5.0 6.0 0.00 0.00 0.00 90 1017.2
20260507073312 59 37 2.0 2.0 0.00 0.00 0.00 90 1017.1
20260507072809 59 48 2.0 4.0 0.00 0.00 0.00 90 1016.8
20260507072308 59 47 4.0 6.0 0.00 0.00 0.00 90 1016.9
20260507071804 59 52 6.0 8.0 0.00 0.00 0.00 89 1016.8
20260507071300 59 17 4.0 7.0 0.00 0.00 0.00 89 1017.0
20260507070757 59 15 2.0 3.0 0.00 0.00 0.00 88 1017.2
20260507070254 59 320 3.0 7.0 0.00 0.00 0.00 88 1017.0
20260507065751 59 25 2.0 3.0 0.00 0.00 0.00 88 1017.0
20260507065247 59 1 5.0 7.0 0.00 0.00 0.00 88 1016.9
20260507064745 60 44 7.0 8.0 0.00 0.00 0.00 88 1016.8
20260507064244 60 51 6.0 7.0 0.00 0.00 0.00 87 1016.5
20260507063741 60 29 4.0 6.0 0.00 0.00 0.00 87 1016.4
20260507063237 60 11 6.0 8.0 0.00 0.00 0.00 87 1016.7
20260507062734 60 41 1.0 2.0 0.00 0.00 0.00 87 1017.0
20260507062232 60 318 6.0 9.0 0.00 0.00 0.00 87 1017.1
20260507061730 60 349 8.0 11.0 0.00 0.00 0.00 87 1016.6
20260507061227 60 25 4.0 9.0 0.00 0.00 0.00 87 1016.6
20260507060725 60 30 1.0 1.0 0.00 0.00 0.00 87 1017.2
20260507060222 60 2 4.0 4.0 0.00 0.00 0.00 87 1017.4
20260507055718 60 19 2.0 3.0 0.00 0.00 0.00 87 1017.2
20260507055213 60 4 3.0 4.0 0.00 0.00 0.00 86 1017.0
20260507054709 60 60 4.0 7.0 0.00 0.00 0.00 86 1016.9
20260507054207 60 14 1.0 2.0 0.00 0.00 0.00 86 1016.7
20260507053704 60 359 4.0 4.0 0.00 0.00 0.00 86 1016.6
20260507053202 60 16 3.0 4.0 0.00 0.00 0.00 86 1016.7
20260507052701 60 32 2.0 3.0 0.00 0.00 0.00 86 1016.7
20260507052156 60 47 4.0 6.0 0.00 0.00 0.00 86 1016.6
20260507051654 61 60 4.0 4.0 0.00 0.00 0.00 86 1016.5
20260507051150 61 33 2.0 3.0 0.00 0.00 0.00 86 1016.7
20260507050648 61 11 6.0 8.0 0.00 0.00 0.00 86 1016.9
20260507050144 61 323 2.0 3.0 0.00 0.00 0.00 86 1017.0
20260507045641 61 24 3.0 3.0 0.00 0.00 0.00 85 1016.6
20260507045138 61 353 7.0 9.0 0.00 0.00 0.00 85 1016.6
20260507044634 61 348 6.0 8.0 0.00 0.00 0.00 85 1017.2
20260507044126 61 10 2.0 4.0 0.00 0.00 0.00 85 1017.0
20260507043621 61 36 6.0 8.0 0.00 0.00 0.00 85 1016.8
20260507043119 61 17 5.0 9.0 0.00 0.00 0.00 84 1017.0
20260507042614 61 53 7.0 11.0 0.00 0.00 0.00 85 1017.1
20260507042104 61 48 4.0 8.0 0.00 0.00 0.00 85 1016.8
20260507041601 61 18 3.0 4.0 0.00 0.00 0.00 85 1017.1
20260507041058 61 353 7.0 9.0 0.00 0.00 0.00 85 1017.0
20260507040555 61 12 5.0 8.0 0.00 0.00 0.00 85 1017.0
20260507040051 61 323 3.0 6.0 0.00 0.00 0.00 86 1017.1
20260507035547 61 319 8.0 9.0 0.00 0.00 0.00 86 1017.2
20260507035044 61 24 10.0 13.0 0.00 0.00 0.00 86 1017.0
20260507034540 61 340 5.0 6.0 0.00 0.00 0.00 86 1016.8
20260507034038 61 357 6.0 10.0 0.00 0.00 0.00 86 1017.1
20260507033536 61 3 5.0 7.0 0.00 0.00 0.00 86 1016.7
20260507033033 61 358 5.0 9.0 0.00 0.00 0.00 86 1016.6
20260507032530 61 41 6.0 8.0 0.00 0.00 0.00 86 1016.6
20260507032026 61 355 5.0 7.0 0.00 0.00 0.00 86 1017.0
20260507031522 61 4 1.0 1.0 0.00 0.00 0.00 86 1016.7
20260507031020 61 341 9.0 13.0 0.00 0.00 0.00 86 1016.7
20260507030516 61 359 4.0 6.0 0.00 0.00 0.00 86 1016.5
20260507030009 61 333 6.0 8.0 0.00 0.00 0.00 86 1016.3
20260507025505 61 348 4.0 4.0 0.00 0.00 0.00 85 1016.5
20260507025003 61 32 3.0 3.0 0.00 0.00 0.00 85 1016.6
20260507024501 62 336 7.0 8.0 0.00 0.00 0.00 85 1016.6
20260507023956 61 295 2.0 2.0 0.00 0.00 0.00 86 1016.3
20260507023453 61 4 4.0 6.0 0.00 0.00 0.00 85 1016.3
20260507022950 62 15 2.0 3.0 0.00 0.00 0.00 85 1016.3
20260507022447 62 357 3.0 4.0 0.00 0.00 0.00 85 1016.0